[[{"header":{"parameterUnit":"m.s-1","parameterCategory":1,"la1":30.2991,"la2":30.254,"lo1":-89.0895,"lo2":-89.0444,"dy":0.0017,"dx":0.0017,"nx":28,"ny":28,"refTime":"2025-11-15T03:00:00:Z","depth":0,"parameterNumber":2,"parameterNumberName":"U-component_of_WINDS"},"data":[0,0,0,0,0,0,0,0,0,0,0,0,0,0,0,0,0,0,0,0,0,0,0,0,0,0,0,0,0,0,0,0,0,0,0,0,0,0,0,0,0,0,0,0,0,0,0,0,0,0,0,0,0,0,0,0,0,0,-0.808,-0.8081,0,-0.8112,-0.8113,-0.8113,-0.8096,-0.8095,-0.8095,-0.8094,-0.8128,-0.8129,-0.8131,0,0,0,0,0,0,0,0,0,0,0,0,0,-0.8006,-0.8008,-0.808,-0.8081,-0.8081,-0.8112,-0.8113,-0.8113,-0.8096,-0.8095,-0.8094,-0.8093,-0.8127,-0.8129,-0.8131,0,0,0,0,0,0,0,0,0,0,0,0,0,-0.8038,-0.8008,-0.808,-0.8077,-0.8077,-0.8112,-0.8113,-0.8113,-0.8097,-0.8095,-0.8094,-0.8093,-0.8127,-0.8129,-0.8132,-0.8173,0,0,-0.8139,-0.8141,0,0,0,0,0,0,0,0,-0.8037,-0.8041,-0.8077,-0.8077,-0.8077,-0.8099,-0.8099,-0.8133,-0.8097,-0.8089,-0.8094,-0.8092,-0.8119,-0.8122,-0.8131,-0.8175,-0.8176,-0.814,-0.8141,-0.8142,-0.8143,0,0,0,0,0,0,0,-0.8034,-0.804,-0.8093,-0.8077,-0.8077,-0.8074,-0.8077,-0.8105,-0.8111,-0.809,-0.8088,-0.8092,-0.8119,-0.8129,-0.8132,-0.8177,-0.814,-0.8142,-0.8143,-0.8144,-0.8255,-0.8256,0,0,0,0,0,0,-0.8032,-0.8038,-0.8092,-0.8094,-0.8053,-0.8076,-0.808,-0.8093,-0.8111,-0.8112,-0.8093,-0.8092,-0.8125,-0.8129,-0.8133,-0.8181,-0.8142,-0.8145,-0.8146,-0.8253,-0.8255,-0.8257,0,0,0,0,0,0,-0.8031,-0.8037,-0.8091,-0.8066,-0.8072,-0.8079,-0.8094,-0.8095,-0.8104,-0.8114,-0.8115,-0.8102,-0.8124,-0.8129,-0.8163,-0.8182,-0.8146,-0.8148,-0.8252,-0.8254,-0.8256,-0.8279,0,0,0,0,0,0,-0.8029,-0.8037,-0.8052,-0.8066,-0.8074,-0.812,-0.8095,-0.8096,-0.8108,-0.8106,-0.8122,-0.8123,-0.8124,-0.8159,-0.8165,-0.8185,-0.815,-0.825,-0.8253,-0.8255,-0.8277,-0.8282,-0.8286,0,0,0,0,0,-0.8026,-0.8058,-0.8053,-0.806,-0.8093,-0.8121,-0.8125,-0.8124,-0.811,-0.8126,-0.8132,-0.8123,-0.818,-0.8163,-0.817,-0.8191,-0.8249,-0.8252,-0.8255,-0.8275,-0.8281,-0.8286,0,0,0,0,0,0,-0.8047,-0.806,-0.8054,-0.8092,-0.8105,-0.8118,-0.8138,-0.8131,-0.8149,-0.8146,-0.8145,-0.8149,-0.8183,-0.8191,-0.8172,-0.8231,-0.8212,-0.8217,-0.8225,-0.8231,-0.8235,-0.8232,-0.8152,0,0,0,0,0,-0.8056,-0.8077,-0.8088,-0.812,-0.8127,-0.8131,-0.8143,-0.8141,-0.8155,-0.8161,-0.817,-0.8184,-0.8205,-0.8219,-0.8239,-0.8279,-0.8281,-0.8296,-0.8301,-0.8305,-0.8308,-0.8329,-0.8335,-0.8267,-0.8267,-0.8267,0,0,-0.8075,-0.8085,-0.8098,-0.8124,-0.8134,-0.8156,-0.8136,-0.816,-0.8176,-0.8165,-0.8196,-0.8203,-0.8219,-0.8256,-0.8272,-0.8263,-0.8328,-0.8309,-0.8312,-0.8313,-0.8333,-0.8339,-0.8345,-0.8269,-0.8269,-0.8268,0,0,-0.812,-0.813,-0.8157,-0.8167,-0.8183,-0.8185,-0.8192,-0.8206,-0.8209,-0.8241,-0.8232,-0.8252,-0.8289,-0.83,-0.831,-0.8359,-0.8351,-0.8366,-0.839,-0.841,-0.8415,-0.842,-0.8436,-0.8442,-0.837,-0.837,-0.837,0,-0.8141,-0.8173,-0.8172,-0.8196,-0.8207,-0.8198,-0.8225,-0.8236,-0.8257,-0.8265,-0.8255,-0.8299,-0.831,-0.8348,-0.836,-0.8369,-0.8376,-0.8363,-0.8415,-0.842,-0.8424,-0.8439,-0.8445,-0.8372,-0.8371,-0.8371,-0.8371,0,-0.8197,-0.822,-0.824,-0.826,-0.8274,-0.83,-0.8302,-0.8317,-0.8314,-0.8318,-0.835,-0.8362,-0.8384,-0.8393,-0.8391,-0.8431,-0.8424,-0.8415,-0.8395,-0.8432,-0.8446,-0.8452,-0.8374,-0.8373,-0.8373,-0.8372,0,0,-0.8255,-0.8274,-0.8281,-0.8289,-0.8305,-0.8323,-0.8349,-0.8369,-0.838,-0.8396,-0.8417,-0.8448,-0.8438,-0.845,-0.845,-0.8468,-0.8504,-0.8455,-0.8456,-0.8462,-0.8547,-0.8552,-0.8559,-0.85,-0.8501,-0.8502,-0.8544,0,-0.8299,-0.8342,-0.8342,-0.8382,-0.8402,-0.8394,-0.8416,-0.8429,-0.8433,-0.8451,-0.8457,-0.8478,-0.8465,-0.8472,-0.8489,-0.8496,-0.852,-0.8493,-0.8518,-0.8519,-0.8512,-0.8566,-0.8573,-0.8613,-0.855,-0.8551,-0.8552,0,-0.8356,-0.8372,-0.8414,-0.8426,-0.8435,-0.8454,-0.8472,-0.849,-0.8504,-0.8506,-0.852,-0.8516,-0.8542,-0.8524,-0.8559,-0.854,-0.8551,-0.8556,-0.8557,-0.8558,-0.8536,-0.8566,-0.8625,-0.8631,-0.8561,-0.856,-0.8559,0,-0.8391,-0.8424,-0.8452,-0.846,-0.8476,-0.8489,-0.8497,-0.851,-0.8522,-0.8538,-0.8546,-0.8566,-0.8576,-0.8592,-0.8594,-0.858,-0.8629,-0.8611,-0.863,-0.863,-0.8639,-0.8638,-0.8698,-0.865,-0.865,-0.865,-0.865,0,-0.8439,-0.8464,-0.8468,-0.8485,-0.8513,-0.8513,-0.8541,-0.8548,-0.8559,-0.8578,-0.8573,-0.8591,-0.8594,-0.8612,-0.8614,-0.8642,-0.8648,-0.865,-0.8649,-0.8649,-0.8648,-0.8654,-0.8651,-0.8651,-0.8651,-0.8651,-0.865,0,-0.8482,-0.8486,-0.8516,-0.8528,-0.8532,-0.8552,-0.8563,-0.8579,-0.8584,-0.8607,-0.8613,-0.862,-0.8641,-0.8646,-0.8672,-0.8673,-0.8706,-0.8704,-0.87,-0.8699,-0.8718,-0.8716,-0.8783,-0.8791,-0.8739,-0.8739,-0.874,0,-0.8511,-0.853,-0.8544,-0.8556,-0.8564,-0.8583,-0.8595,-0.8596,-0.8609,-0.8626,-0.8641,-0.8662,-0.8678,-0.8713,-0.872,-0.874,-0.8737,-0.8759,-0.874,-0.8738,-0.8735,-0.8733,-0.8734,-0.8762,-0.8763,-0.8763,-0.8764,0,-0.8562,-0.8563,-0.8579,-0.8597,-0.8611,-0.8625,-0.8639,-0.8649,-0.8652,-0.8667,-0.8688,-0.8701,-0.8726,-0.8747,-0.8766,-0.8774,-0.8769,-0.877,-0.8775,-0.8774,-0.877,-0.877,-0.8708,-0.8768,-0.8768,-0.8767,-0.8767,-0.8767,-0.8597,-0.8613,-0.8625,-0.8644,-0.8654,-0.8667,-0.8683,-0.8689,-0.8706,-0.8726,-0.8727,-0.875,-0.8764,-0.8789,-0.8798,-0.8817,-0.881,-0.8818,-0.8819,-0.8821,-0.8821,-0.8769,-0.8821,-0.882,-0.882,-0.882,-0.882,0,-0.8646,-0.8653,-0.8671,-0.8689,-0.8704,-0.8698,-0.8713,-0.8725,-0.8745,-0.8758,-0.8774,-0.8798,-0.8818,-0.8828,-0.8847,-0.886,-0.8858,-0.8865,-0.8863,-0.8864,-0.8828,-0.882,-0.8866,-0.8866,-0.8866,-0.8866,-0.8866,-0.8866,-0.8673,-0.8699,-0.8701,-0.8732,-0.874,-0.8761,-0.877,-0.8781,-0.8791,-0.8818,-0.8834,-0.884,-0.8851,-0.8872,-0.889,-0.8892,-0.8899,-0.8906,-0.8907,-0.8872,-0.8867,-0.8863,-0.8855,-0.8908,-0.8908,-0.8942,-0.8942,-0.8943]},{"header":{"parameterUnit":"m.s-1","parameterCategory":1,"la1":30.2991,"la2":30.254,"lo1":-89.0895,"lo2":-89.0444,"dy":0.0017,"dx":0.0017,"nx":28,"ny":28,"refTime":"2025-11-15T03:00:00:Z","depth":0,"parameterNumber":3,"parameterNumberName":"V-component_of_WINDS"},"data":[0,0,0,0,0,0,0,0,0,0,0,0,0,0,0,0,0,0,0,0,0,0,0,0,0,0,0,0,0,0,0,0,0,0,0,0,0,0,0,0,0,0,0,0,0,0,0,0,0,0,0,0,0,0,0,0,0,0,2.4649,2.4649,0,2.4656,2.4656,2.4656,2.4713,2.4714,2.4716,2.4717,2.4718,2.4717,2.4715,0,0,0,0,0,0,0,0,0,0,0,0,0,2.4681,2.4681,2.4649,2.4649,2.4649,2.4656,2.4656,2.4656,2.4712,2.4714,2.4716,2.4718,2.4718,2.4717,2.4715,0,0,0,0,0,0,0,0,0,0,0,0,0,2.4675,2.468,2.4649,2.4678,2.4681,2.4656,2.4656,2.4656,2.4712,2.4714,2.4716,2.4718,2.4719,2.4717,2.4715,2.466,0,0,2.4709,2.4708,0,0,0,0,0,0,0,0,2.4676,2.4674,2.4674,2.4676,2.4679,2.4686,2.4668,2.4657,2.4712,2.47,2.4717,2.4719,2.4705,2.4704,2.4701,2.466,2.466,2.4709,2.4708,2.4707,2.4706,0,0,0,0,0,0,0,2.4676,2.4674,2.4652,2.4674,2.4677,2.469,2.4691,2.4666,2.469,2.4701,2.4705,2.4706,2.4707,2.4702,2.4701,2.466,2.4709,2.4707,2.4706,2.4705,2.4577,2.4575,0,0,0,0,0,0,2.4673,2.4674,2.4651,2.4652,2.4683,2.4688,2.4689,2.4681,2.4691,2.4694,2.4704,2.4708,2.4705,2.4703,2.4701,2.4639,2.4707,2.4705,2.4704,2.4579,2.4576,2.4574,0,0,0,0,0,0,2.4674,2.467,2.4651,2.4664,2.4663,2.4685,2.4675,2.468,2.4676,2.4693,2.4697,2.4695,2.4706,2.4704,2.4671,2.464,2.4704,2.4702,2.4582,2.4578,2.4575,2.4513,0,0,0,0,0,0,2.4674,2.467,2.465,2.4663,2.4662,2.4621,2.4674,2.4679,2.4673,2.4679,2.4686,2.4689,2.4708,2.4673,2.4669,2.4638,2.4701,2.4585,2.458,2.4576,2.4518,2.4508,2.45,0,0,0,0,0,2.4675,2.4631,2.4649,2.4646,2.4638,2.4619,2.4618,2.4643,2.4671,2.465,2.4662,2.4689,2.4644,2.467,2.4665,2.4633,2.4587,2.4581,2.4577,2.4522,2.451,2.45,0,0,0,0,0,0,2.4611,2.4633,2.4653,2.4612,2.4614,2.4629,2.4604,2.4629,2.4621,2.4626,2.4655,2.4656,2.4619,2.4623,2.4651,2.4582,2.462,2.4614,2.4581,2.4569,2.456,2.456,2.4699,0,0,0,0,0,2.4593,2.4578,2.4597,2.4559,2.4559,2.4581,2.4574,2.4593,2.4595,2.4595,2.4604,2.4603,2.459,2.458,2.4568,2.4519,2.4522,2.4495,2.4486,2.4479,2.4473,2.4449,2.4438,2.4558,2.4558,2.4558,0,0,2.4553,2.4564,2.4552,2.4546,2.455,2.4533,2.4581,2.456,2.4548,2.4592,2.4562,2.4568,2.4569,2.4529,2.4511,2.4531,2.444,2.4472,2.4466,2.4464,2.4442,2.4431,2.4421,2.4554,2.4555,2.4555,0,0,2.4473,2.448,2.445,2.4453,2.4459,2.4474,2.4467,2.4479,2.4486,2.4457,2.449,2.4474,2.4449,2.445,2.4446,2.4369,2.4394,2.4364,2.4316,2.4292,2.4283,2.4275,2.4248,2.4238,2.4359,2.4358,2.4358,0,2.4423,2.44,2.443,2.4408,2.4405,2.4447,2.4416,2.4417,2.4418,2.4414,2.4437,2.4408,2.4412,2.4373,2.4354,2.435,2.4342,2.4363,2.4282,2.4274,2.4267,2.4242,2.4232,2.4355,2.4355,2.4356,2.4356,0,2.4339,2.4323,2.4297,2.43,2.4294,2.4267,2.4292,2.4282,2.4303,2.4316,2.4286,2.4292,2.4283,2.4275,2.4293,2.4239,2.4251,2.4278,2.4317,2.4252,2.4228,2.4219,2.435,2.4351,2.4352,2.4353,0,0,2.4217,2.4239,2.4229,2.4232,2.4242,2.4229,2.4205,2.4199,2.419,2.4189,2.4169,2.4149,2.4174,2.417,2.4189,2.4168,2.4108,2.4197,2.4198,2.4181,2.405,2.403,2.4018,2.4125,2.4124,2.4122,2.405,0,2.4141,2.4103,2.413,2.4086,2.4072,2.4113,2.4092,2.4095,2.4107,2.4096,2.4108,2.4094,2.4128,2.4126,2.4108,2.4119,2.4082,2.4125,2.4106,2.4105,2.4105,2.4006,2.3985,2.3916,2.4041,2.4039,2.4038,0,2.4046,2.4045,2.4001,2.4016,2.4011,2.3992,2.3989,2.3978,2.3983,2.3994,2.3991,2.4016,2.3992,2.4032,2.4,2.4029,2.4023,2.4027,2.4025,2.4024,2.4068,2.4003,2.3895,2.3885,2.4024,2.4025,2.4026,0,2.3963,2.3949,2.3922,2.3922,2.394,2.3925,2.3931,2.3939,2.3934,2.3931,2.3929,2.3922,2.3918,2.3912,2.3935,2.3961,2.39,2.3941,2.3908,2.3907,2.3892,2.3893,2.3782,2.3888,2.3888,2.3889,2.3889,0,2.3875,2.3846,2.3885,2.3868,2.3837,2.3869,2.3837,2.3847,2.3854,2.3839,2.3873,2.3858,2.3889,2.3876,2.3893,2.3865,2.3863,2.387,2.3875,2.3867,2.3866,2.3863,2.3869,2.3886,2.3886,2.3887,2.3887,0,2.3776,2.3801,2.3773,2.3793,2.3798,2.3774,2.379,2.3775,2.3791,2.3771,2.3769,2.3792,2.378,2.3802,2.3791,2.3803,2.3764,2.3776,2.3763,2.3766,2.3732,2.3735,2.3616,2.3602,2.3716,2.3715,2.3714,0,2.3718,2.3698,2.3716,2.371,2.3715,2.3704,2.37,2.373,2.3725,2.3731,2.3714,2.3706,2.37,2.3679,2.3694,2.3687,2.3699,2.3658,2.3698,2.3692,2.3699,2.37,2.3699,2.3649,2.3648,2.3647,2.3646,0,2.3613,2.3627,2.3621,2.362,2.3615,2.3615,2.3617,2.361,2.3642,2.3634,2.3624,2.362,2.3611,2.3602,2.3599,2.3604,2.363,2.3634,2.3626,2.3617,2.3611,2.3615,2.3741,2.3636,2.3637,2.3638,2.3638,2.3638,2.3533,2.3518,2.353,2.3522,2.3528,2.353,2.3517,2.3532,2.3525,2.3522,2.354,2.3525,2.3532,2.3532,2.3534,2.3523,2.3541,2.3529,2.3526,2.3523,2.3518,2.3613,2.3522,2.3523,2.3523,2.3523,2.3523,0,2.3431,2.3441,2.3434,2.3438,2.3432,2.346,2.3465,2.3458,2.3445,2.3451,2.3446,2.3434,2.3426,2.3442,2.3437,2.3425,2.3436,2.3422,2.3423,2.3424,2.3501,2.3509,2.3413,2.3413,2.3413,2.3413,2.3413,2.3413,2.3377,2.3353,2.3368,2.3347,2.3357,2.3345,2.3346,2.3348,2.3353,2.3339,2.3334,2.3345,2.3355,2.3351,2.3344,2.3349,2.3346,2.3327,2.3336,2.3408,2.3418,2.3429,2.3436,2.3326,2.3326,2.326,2.3259,2.3259]}]]